Weather History for Rome, GA

Change the Weather History Date:

Wednesday, February 20, 2013

  Actual Average Record
Temperature  
Mean Temperature 37 °F 45 °F  
Max Temperature 50 °F 57 °F 75 °F (1997)
Min Temperature 24 °F 34 °F 23 °F (2009)
Degree Days  
Heating Degree Days 28 20  
Month to date heating degree days 432  
Since 1 July heating degree days 2474  
Moisture  
Dew Point 16 °F    
Average Humidity 42    
Maximum Humidity 81    
Minimum Humidity 14    
Precipitation  
Precipitation 0.00 in 0.20 in 0.91 in (2005)
Month to date precipitation 3.33  
Year to date precipitation 8.15  
Snow  
Snow 0.00 in - - ()
Month to date snowfall  
Since 1 July snowfall  
Snow Depth -    
Sea Level Pressure  
Sea Level Pressure 30.20 in    
Wind  
Wind Speed 4 mph (North)    
Max Wind Speed 12 mph    
Max Gust Speed -    
Visibility 10 miles    
Events      
T = Trace of Precipitation, MM = Missing Value Source: NWS Daily Summary

Daily Weather History Graph

Daily Weather History Graph

Search for Another Location

Airport:

Trip Planner

Search our weather history database for the weather conditions in past years. The results will help you decide how hot, cold, wet, or windy it might be!

Date:

Astronomy

Feb. 20, 2013 Rise Set
Actual Time 7:20 AM EST 6:29 PM EST
Civil Twilight 6:54 AM EST 6:54 PM EST
Nautical Twilight 6:25 AM EST 7:23 PM EST
Astronomical Twilight 5:56 AM EST 7:52 PM EST
Moon 1:57 PM EST (2/20) 3:31 AM EST (2/20)
Length of Visible Light 12h 00m
Length of Day
11h 09m
Waxing Gibbous, 76% of the Moon is Illuminated
Feb 20
Waxing Gibbous
Feb 25
Full
Mar 4
Last Quarter
Mar 11
New
Mar 19
First Quarter

Hourly Weather History & Observations

Time (EST) Temp. Windchill Dew Point Humidity Pressure Visibility Wind Dir Wind Speed Gust Speed Precip Events Conditions
12:53 AM 37.9 °F 35.5 °F 17.1 °F 43% 30.20 in 10.0 mi NNW 3.5 mph - N/A   Clear
1:53 AM 34.0 °F - 19.0 °F 54% 30.21 in 10.0 mi Calm Calm - N/A   Clear
2:53 AM 28.9 °F - 21.0 °F 72% 30.20 in 10.0 mi Calm Calm - N/A   Clear
3:53 AM 28.9 °F - 21.0 °F 72% 30.18 in 10.0 mi Calm Calm - N/A   Clear
4:53 AM 27.0 °F - 21.0 °F 78% 30.18 in 10.0 mi Calm Calm - N/A   Clear
5:53 AM 26.1 °F - 21.0 °F 81% 30.19 in 10.0 mi Calm Calm - N/A   Clear
6:53 AM 24.8 °F 20.5 °F 19.4 °F 80% 30.21 in 10.0 mi South 3.5 mph - N/A   Clear
7:53 AM 28.0 °F - 21.9 °F 78% 30.24 in 10.0 mi Calm Calm - N/A   Clear
8:53 AM 36.0 °F 29.6 °F 24.1 °F 62% 30.23 in 10.0 mi NNE 8.1 mph - N/A   Clear
9:53 AM 39.9 °F 35.1 °F 18.0 °F 41% 30.25 in 10.0 mi NNW 6.9 mph - N/A   Clear
10:53 AM 42.1 °F 35.7 °F 14.0 °F 32% 30.23 in 10.0 mi North 11.5 mph - N/A   Clear
11:53 AM 44.1 °F 39.5 °F 14.0 °F 30% 30.23 in 10.0 mi North 8.1 mph - N/A   Clear
12:53 PM 48.0 °F - 14.0 °F 26% 30.22 in 10.0 mi Variable 5.8 mph - N/A   Clear
1:53 PM 48.9 °F - 10.0 °F 21% 30.18 in 10.0 mi North 10.4 mph - N/A   Clear
2:53 PM 48.9 °F - 12.0 °F 23% 30.19 in 10.0 mi NW 8.1 mph - N/A   Partly Cloudy
3:53 PM 46.0 °F 42.5 °F 7.0 °F 20% 30.20 in 10.0 mi North 6.9 mph - N/A   Overcast
4:53 PM 45.0 °F 41.2 °F 8.1 °F 22% 30.22 in 10.0 mi NNW 6.9 mph - N/A   Overcast
5:53 PM 45.0 °F 41.2 °F 12.0 °F 26% 30.17 in 10.0 mi NNE 6.9 mph - N/A   Partly Cloudy
6:53 PM 43.0 °F 37.2 °F 12.0 °F 28% 30.16 in 10.0 mi North 10.4 mph - N/A   Mostly Cloudy
7:53 PM 41.0 °F 37.1 °F 14.0 °F 33% 30.15 in 10.0 mi NNE 5.8 mph - N/A   Partly Cloudy
8:53 PM 39.0 °F 35.7 °F 15.1 °F 38% 30.16 in 10.0 mi North 4.6 mph - N/A   Scattered Clouds
9:53 PM 39.9 °F 34.5 °F 12.9 °F 33% 30.18 in 10.0 mi North 8.1 mph - N/A   Overcast
10:53 PM 39.0 °F 35.7 °F 14.0 °F 36% 30.17 in 10.0 mi North 4.6 mph - N/A   Scattered Clouds
11:53 PM 37.9 °F 35.5 °F 15.1 °F 39% 30.17 in 10.0 mi North 3.5 mph - N/A   Overcast